Temperature
28 29 29 28 28 28 28 28 28 28 28 28 27 26 25 24 23 22 22 21 21 21 20 20 20 19 19 20 20 19 19 19 19 19 19 18 18 18 18 18 18 18 18 17
27 27 28 27 28 28 28 28 28 28 28 28 26 24 23 23 22 22 21 21 20 20 20 19 19 19 19 19 19 19 19 19 19 18 18 18 18 18 18 18 18 18 17 17
26 27 27 26 27 27 27 27 27 27 27 26 25 24 23 22 22 21 21 20 20 19 19 19 19 18 18 18 18 18 18 18 18 18 18 18 18 18 18 18 18 17 17 17
26 25 24 27 27 27 27 26 26 26 25 24 24 22 21 21 21 21 20 20 19 19 19 19 18 18 18 18 18 18 18 18 18 18 18 18 18 18 18 18 17 17 17 17
25 25 25 26 25 25 25 25 25 25 24 23 22 22 22 20 20 19 19 19 19 19 19 18 18 18 18 18 18 18 18 18 18 18 18 18 18 17 17 17 17 17 17 17
24 24 24 25 25 24 24 24 24 23 23 22 22 24 23 19 19 19 18 18 18 18 18 18 18 18 18 17 17 17 17 17 17 17 17 17 17 17 17 17 16 16 16 16
23 23 25 24 23 23 23 23 22 22 21 21 22 21 20 18 18 18 17 17 17 17 17 17 17 17 17 17 17 17 16 16 16 16 16 16 16 17 16 16 16 16 16 16
23 23 23 22 23 23 22 21 21 21 20 20 19 19 18 18 17 17 17 17 17 17 17 17 17 17 16 16 16 16 16 16 16 16 16 16 16 16 16 16 15 15 15 15
23 22 20 20 20 20 19 20 19 19 19 19 19 18 18 17 17 17 17 16 16 16 16 16 16 16 15 16 16 15 15 15 15 15 15 15 15 15 15 15 15 15 15 15
20 21 20 19 19 19 18 18 18 18 18 18 18 18 17 17 16 16 16 16 16 16 16 15 15 15 15 15 15 15 15 15 15 14 14 14 14 15 15 15 15 15 15 15
20 20 19 19 18 18 17 17 17 17 17 17 17 17 17 16 16 16 16 15 15 15 15 15 15 15 15 15 15 14 14 14 14 14 14 14 14 14 14 14 14 14 14 14
20 19 19 18 17 17 17 17 17 17 17 17 16 16 16 16 15 15 15 15 15 15 14 14 14 14 14 14 14 14 14 14 14 14 14 14 14 14 14 14 14 14 14 14
17 17 17 16 16 16 16 16 16 16 16 16 16 15 15 15 15 15 14 14 14 14 14 14 14 13 13 13 13 13 13 13 14 14 14 14 14 14 14 14 13 13 13 13
15 15 15 16 16 15 15 15 15 15 15 15 15 15 14 14 14 14 14 14 14 13 13 13 13 13 13 13 13 13 13 13 13 13 13 13 13 13 13 13 13 13 13 13
15 15 15 15 15 15 15 15 15 15 15 15 14 14 14 14 13 13 13 13 13 13 13 13 13 13 13 13 13 12 12 13 13 13 13 13 13 13 13 13 13 13 12 12
14 14 14 14 14 14 14 14 14 14 14 14 14 13 13 13 13 13 13 13 13 13 13 12 12 12 12 12 12 12 12 12 12 12 12 12 12 12 12 12 12 12 12 12
14 14 14 14 14 14 14 14 13 13 13 13 13 13 12 12 12 12 12 12 12 12 12 12 12 12 12 12 12 12 12 12 12 12 12 12 12 12 12 12 11 11 11 11
13 13 13 13 13 13 13 13 12 12 12 12 12 12 12 11 11 11 11 11 11 11 11 11 11 11 11 11 11 11 11 12 11 11 11 11 11 11 11 11 11 11 11 11
13 13 12 12 12 12 12 12 12 12 12 11 11 11 11 11 11 11 11 11 11 11 11 11 11 11 10 10 10 11 11 11 11 11 11 11 11 11 11 11 11 10 10 10
12 12 12 12 12 12 12 11 11 11 11 11 11 11 10 10 10 10 10 10 10 10 10 10 10 10 10 10 10 10 10 11 11 11 11 11 10 10 10 10 10 10 10 10
12 12 11 12 11 11 11 11 11 11 11 10 10 10 10 10 10 10 10 10 10 10 10 10 10 10 10 10 10 10 10 10 10 10 10 10 10 10 10 10 10 10 9 9
11 11 11 11 11 11 11 11 11 10 10 10 10 10 10 10 10 9 9 9 9 10 9 10 10 10 10 10 10 10 10 10 10 10 10 10 10 10 10 9 9 9 9 9
11 11 11 11 11 10 10 10 10 10 10 10 9 9 9 9 9 9 9 9 9 9 9 9 9 9 9 9 10 10 10 10 9 9 9 9 9 9 9 9 9 9 9 9
10 10 10 10 10 10 10 10 10 10 10 9 9 9 9 9 9 9 9 9 9 9 9 9 9 9 9 9 9 9 9 9 9 9 9 9 9 9 9 8 8 8 8 8
10 10 10 10 10 10 10 10 10 10 10 10 9 9 9 9 9 8 8 8 8 8 8 9 9 9 8 8 9 9 8 8 9 8 8 8 8 8 8 8 8 8 8 8
10 10 10 10 10 10 10 10 10 10 10 10 9 9 8 8 8 8 8 8 8 8 8 8 8 8 8 8 8 8 8 8 8 8 8 8 8 8 8 8 7 7 7 7
10 10 10 10 10 10 10 10 10 9 9 9 9 8 8 8 8 8 8 8 8 8 8 8 8 8 8 8 8 8 7 7 7 7 7 7 7 7 7 7 7 7 7 7
Wind_Speed
10 8 8 10 11 11 13 13 13 11 10 6 3 2 2 1 1 1 1 1 0 1 1 2 3 4 4 4 4 5 6 7 8 8 8 9 9 10 10 10 10 9 9 9
10 10 10 11 12 12 13 12 12 11 10 4 1 0 1 1 1 0 1 1 1 1 1 1 2 3 4 4 4 4 4 5 5 6 7 8 8 9 9 9 9 9 10 10
12 9 10 13 11 11 11 10 10 11 7 2 2 1 1 1 1 0 1 2 1 1 1 1 1 2 3 3 4 4 4 3 3 4 5 6 7 7 8 8 8 9 9 9
10 9 15 7 2 5 8 7 6 5 3 2 2 1 1 1 1 1 2 2 2 2 2 1 1 2 2 3 4 4 4 4 4 4 4 4 5 6 6 7 7 8 9 9
10 14 13 7 4 5 7 7 4 4 3 1 1 1 2 2 3 3 3 3 2 2 2 2 1 1 2 3 3 4 4 4 4 4 4 4 5 5 5 5 6 7 7 8
11 13 14 6 2 2 6 8 3 3 3 2 3 5 1 3 4 4 4 3 3 3 3 2 2 2 3 3 3 4 4 4 4 4 5 5 5 5 5 5 6 6 6 7
13 14 10 1 1 4 8 3 1 2 2 2 3 3 3 3 4 4 4 4 4 4 3 3 3 3 3 4 4 4 4 4 4 4 5 5 5 5 5 6 5 5 6 6
11 13 9 3 2 4 2 3 1 1 2 2 2 2 2 2 3 4 4 4 4 4 4 3 3 3 4 4 4 4 4 4 5 5 6 5 5 5 6 6 6 6 5 5
6 4 3 2 1 2 3 3 2 2 2 2 3 3 3 4 4 4 4 5 4 4 4 4 3 4 5 5 5 5 5 5 5 5 5 5 6 6 6 6 6 6 5 5
5 4 2 2 2 3 3 4 4 3 3 4 4 5 5 5 5 5 5 5 5 5 5 5 4 4 5 5 5 5 6 6 5 5 6 5 5 6 6 6 6 6 5 5
8 6 5 4 3 4 4 5 5 5 6 6 6 7 7 6 6 6 6 6 6 6 6 6 6 6 6 5 5 6 7 7 7 6 6 5 6 5 6 5 5 5 5 5
8 5 6 6 5 6 6 6 6 6 7 7 7 8 8 7 7 7 7 7 7 8 8 8 7 6 6 6 6 7 7 7 7 6 5 6 6 5 2 3 1 2 4 6
7 7 8 8 7 7 8 8 8 8 8 8 8 8 8 8 7 8 8 8 9 9 9 9 8 7 7 6 6 7 7 7 7 6 6 6 6 6 4 3 2 2 2 3
6 6 7 7 7 7 8 8 8 8 8 8 7 7 7 8 8 8 9 9 9 9 9 9 8 8 7 7 7 7 8 7 7 6 6 6 6 6 5 5 4 3 1 2
6 6 7 7 7 8 8 8 8 7 7 7 7 7 7 8 9 9 9 9 9 9 9 9 9 8 7 7 7 8 8 7 6 6 6 5 5 5 5 5 4 3 2 2
6 6 6 7 7 7 8 8 8 7 8 8 8 8 8 9 9 9 9 9 9 10 9 9 9 8 7 7 7 7 6 6 6 5 5 5 4 4 4 4 4 3 3 3
7 7 7 7 7 8 8 8 8 8 8 8 8 9 9 9 9 9 9 8 8 8 8 8 8 7 7 6 7 7 6 5 5 5 5 4 4 4 3 3 3 3 3 3
6 7 7 7 7 7 8 8 8 8 9 8 8 8 9 9 9 8 8 8 7 7 7 7 6 6 6 6 6 6 5 5 4 4 3 2 3 3 2 2 2 2 2 3
4 5 5 6 6 7 7 7 7 7 7 7 7 7 7 7 7 7 7 6 7 7 7 6 4 5 5 5 5 4 5 4 3 3 2 2 3 2 3 3 2 3 3 3
3 4 5 5 6 6 6 6 6 6 6 5 5 6 6 6 6 6 6 6 6 6 5 5 5 5 5 4 5 4 4 4 4 3 3 3 3 2 2 2 1 2 2 2
3 4 4 4 4 4 4 5 4 4 4 4 5 5 5 5 5 5 5 5 4 4 5 5 4 4 4 4 4 4 4 3 3 3 3 3 3 3 2 2 2 3 3 3
3 3 3 3 4 4 4 4 4 3 3 4 4 4 4 4 4 4 4 4 4 4 5 5 4 2 4 5 4 4 4 3 3 3 3 3 3 3 3 3 3 3 3 3
3 2 3 4 4 4 5 4 4 3 3 3 3 4 4 4 4 4 4 3 4 4 5 4 3 3 5 5 4 4 3 3 3 3 3 3 2 3 3 3 3 3 3 3
3 3 3 4 4 4 4 5 4 3 3 3 3 4 4 4 4 4 3 3 3 4 4 3 3 3 5 4 3 3 3 3 3 3 3 2 2 2 2 3 3 2 3 3
3 3 3 4 4 4 4 4 3 3 3 3 4 4 4 3 3 4 4 4 4 3 3 2 1 3 3 3 2 2 2 2 2 3 3 2 2 2 2 2 3 3 3 3
3 3 3 3 4 4 4 3 3 3 3 4 4 4 4 3 3 3 3 3 3 3 3 2 2 2 2 2 2 2 2 2 2 2 2 2 2 2 2 2 3 3 3 3
2 2 2 3 3 4 3 3 3 3 3 3 4 4 3 3 3 4 4 3 3 3 3 3 3 3 3 3 2 2 2 2 2 2 2 2 2 2 2 3 2 2 2 3
Wind_Direction
257 263 251 244 244 238 243 257 265 267 266 278 297 319 346 344 356 22 43 43 30 161 159 166 175 182 186 189 188 195 204 217 223 227 226 225 224 223 222 222 222 221 223 225
246 245 245 248 248 242 244 253 259 262 262 291 329 348 323 305 312 323 18 12 14 26 121 164 187 187 180 182 182 187 203 219 225 229 226 223 221 221 221 221 223 221 223 225
246 237 243 242 240 242 244 247 253 259 271 282 264 299 298 294 289 308 4 352 343 340 315 237 218 199 184 183 181 186 199 218 223 225 222 220 220 219 222 223 222 223 224 225
246 234 243 247 242 248 247 243 258 268 274 284 293 323 313 329 342 1 354 343 328 315 308 273 223 194 199 192 191 194 203 220 224 224 227 229 224 222 224 225 226 227 227 227
241 242 245 231 219 233 238 239 243 245 245 262 283 228 177 33 352 333 331 327 321 313 304 302 271 217 199 213 210 214 220 227 229 229 234 231 225 225 226 229 231 232 232 231
240 249 252 245 164 238 241 235 208 229 228 235 243 258 304 24 343 336 333 336 330 325 321 309 288 262 232 234 236 240 242 241 239 239 238 235 231 227 228 230 233 237 236 234
242 247 251 331 140 205 234 260 94 205 228 239 269 318 348 332 327 333 333 325 320 313 306 301 288 271 258 255 254 259 254 249 247 243 243 244 242 240 234 232 232 235 238 237
242 246 245 71 174 229 331 22 3 270 267 274 311 322 311 307 315 322 322 318 315 310 303 296 283 269 266 271 277 272 261 253 251 248 250 245 238 240 237 233 231 228 224 231
259 266 49 68 31 7 341 323 316 300 296 279 281 289 297 298 302 307 313 314 314 309 303 295 279 267 264 271 273 268 259 254 254 252 248 246 238 237 238 232 236 234 229 232
253 245 254 282 305 318 320 311 308 298 288 282 284 288 290 292 295 300 302 302 303 303 301 296 293 284 269 267 266 265 260 257 252 248 245 238 237 238 241 243 243 241 239 239
248 254 259 250 279 307 309 304 298 288 283 286 287 284 284 284 285 288 292 293 292 291 290 288 286 284 280 276 270 266 265 261 257 252 248 246 246 252 249 253 257 249 245 241
263 267 271 277 288 294 293 291 292 292 290 289 286 285 283 282 283 285 287 289 288 287 287 287 284 279 278 273 267 263 264 264 260 256 248 245 244 252 261 257 217 227 263 262
285 290 288 288 285 287 288 289 289 287 288 288 287 285 282 281 281 283 284 283 284 285 286 284 280 278 278 273 266 264 266 269 269 265 255 247 244 243 246 238 195 204 232 244
282 277 275 277 283 289 289 289 289 287 286 287 286 284 282 282 283 282 282 285 286 285 284 282 277 276 277 274 265 262 264 260 257 261 260 255 250 250 248 246 242 229 177 146
269 270 277 281 282 286 288 285 284 285 289 290 290 286 284 284 284 283 286 287 285 281 281 280 275 275 276 273 265 261 263 264 260 263 263 258 253 249 249 248 246 243 222 155
275 274 279 275 277 283 285 285 284 287 291 292 290 288 285 283 284 286 288 286 282 283 285 282 281 284 283 278 273 262 256 252 256 262 259 253 249 247 247 243 236 231 226 205
271 275 280 282 282 284 286 284 284 287 286 286 288 290 288 286 284 283 286 287 288 289 292 289 288 290 286 281 276 270 265 254 225 248 252 250 248 246 245 243 233 219 207 168
274 281 284 283 285 287 289 290 287 285 284 287 287 285 284 281 281 285 289 290 290 289 292 294 293 286 280 278 273 270 266 260 253 255 254 247 250 251 243 235 225 223 223 178
282 290 295 292 293 289 287 290 289 287 286 282 283 285 287 284 281 281 285 287 285 284 290 296 291 283 280 281 279 263 263 256 245 246 240 222 227 240 243 239 230 225 223 215
293 300 305 306 305 299 296 297 298 297 293 291 291 292 292 292 289 284 282 280 281 289 296 300 295 292 287 280 270 259 252 248 239 232 233 239 237 236 239 244 236 244 248 243
307 305 311 318 324 324 322 316 310 308 309 308 300 297 299 302 299 293 288 288 298 305 300 286 278 282 282 283 252 252 249 247 243 240 236 232 230 224 220 228 237 241 241 237
317 317 319 325 333 338 339 331 326 325 328 326 322 318 315 313 312 306 300 301 302 308 292 283 281 322 316 288 258 250 240 235 239 243 246 244 230 219 221 232 243 242 234 230
322 328 336 341 346 347 346 343 339 340 340 337 335 338 338 333 326 320 319 327 318 318 302 311 358 354 304 276 268 259 256 249 243 243 244 246 240 233 230 230 234 238 242 246
341 347 348 346 343 343 343 343 345 349 345 340 345 349 342 334 332 332 334 353 352 332 326 14 23 321 285 277 274 268 263 258 254 254 245 234 236 240 250 257 258 255 248 249
344 346 348 344 334 333 335 333 340 347 347 350 354 2 355 350 343 341 343 347 1 336 335 7 330 300 293 297 285 277 276 281 282 282 270 258 248 247 256 266 266 264 265 265
340 333 338 331 331 326 327 330 336 345 348 353 357 0 4 6 3 356 349 352 357 344 336 338 343 313 312 309 305 297 288 271 251 257 273 286 286 281 271 269 268 266 267 267
323 318 318 324 328 329 332 337 340 341 348 348 347 355 360 2 6 5 3 4 358 348 344 340 342 344 340 338 334 321 309 307 301 290 279 278 280 272 261 261 269 276 279 276
Height
1488 1486 1486 1489 1491 1491 1493 1492 1494 1491 1490 1490 1493 1497 1500 1502 1503 1504 1504 1504 1504 1504 1504 1505 1506 1507 1507 1508 1510 1512 1513 1514 1515 1516 1518 1519 1520 1521 1523 1524 1525 1526 1527 1528
1493 1489 1488 1490 1488 1488 1489 1489 1489 1489 1490 1490 1495 1498 1501 1502 1503 1503 1504 1504 1503 1503 1503 1503 1504 1504 1505 1506 1507 1508 1509 1510 1511 1512 1513 1514 1515 1516 1518 1519 1520 1521 1522 1523
1493 1488 1490 1493 1487 1487 1487 1487 1489 1491 1491 1492 1495 1498 1500 1502 1502 1502 1503 1503 1502 1502 1502 1502 1503 1503 1503 1504 1505 1505 1506 1507 1508 1508 1509 1510 1511 1512 1513 1514 1515 1516 1517 1518
1491 1496 1505 1486 1483 1484 1486 1487 1488 1490 1493 1495 1497 1499 1501 1501 1501 1502 1502 1502 1501 1501 1500 1501 1501 1502 1502 1502 1503 1503 1503 1503 1504 1504 1505 1505 1506 1507 1508 1509 1510 1511 1512 1513
1490 1492 1489 1486 1486 1487 1489 1490 1490 1492 1494 1497 1498 1498 1499 1500 1501 1501 1501 1501 1500 1500 1499 1499 1499 1499 1500 1500 1500 1501 1501 1501 1501 1501 1501 1502 1502 1502 1503 1504 1505 1506 1507 1507
1491 1496 1494 1484 1485 1489 1491 1492 1492 1494 1495 1496 1497 1494 1496 1500 1500 1500 1499 1499 1498 1498 1497 1497 1496 1497 1497 1498 1498 1498 1497 1497 1498 1497 1498 1498 1499 1499 1500 1500 1500 1501 1502 1502
1490 1491 1484 1485 1488 1490 1496 1493 1494 1495 1496 1497 1497 1497 1500 1500 1499 1499 1498 1497 1496 1495 1495 1494 1494 1494 1494 1494 1494 1494 1494 1494 1494 1494 1494 1495 1495 1496 1496 1496 1496 1496 1497 1497
1488 1491 1489 1489 1488 1490 1493 1495 1495 1496 1497 1498 1498 1499 1499 1499 1498 1497 1497 1496 1495 1493 1493 1492 1491 1491 1491 1491 1491 1491 1491 1491 1491 1491 1491 1492 1491 1492 1492 1492 1492 1492 1492 1492
1485 1488 1491 1492 1493 1495 1496 1496 1497 1497 1497 1498 1498 1498 1498 1497 1497 1496 1495 1494 1493 1492 1491 1490 1489 1488 1488 1487 1487 1487 1487 1487 1487 1487 1487 1487 1487 1488 1488 1488 1489 1489 1488 1489
1490 1488 1491 1493 1494 1495 1496 1496 1497 1497 1497 1497 1497 1496 1496 1495 1495 1494 1493 1492 1491 1490 1489 1488 1487 1486 1485 1484 1483 1483 1483 1483 1483 1483 1483 1483 1483 1484 1484 1484 1484 1485 1484 1484
1489 1491 1492 1493 1494 1495 1495 1495 1495 1495 1495 1495 1495 1494 1494 1493 1492 1491 1490 1490 1488 1487 1486 1485 1484 1482 1482 1481 1480 1479 1479 1478 1478 1479 1479 1479 1479 1479 1479 1480 1480 1480 1480 1480
1487 1490 1491 1492 1493 1494 1494 1493 1493 1493 1493 1492 1492 1491 1491 1490 1489 1488 1487 1486 1485 1484 1483 1481 1480 1479 1478 1477 1476 1475 1474 1474 1474 1474 1475 1475 1475 1474 1474 1474 1474 1475 1475 1476
1491 1491 1491 1491 1491 1491 1491 1491 1490 1490 1490 1489 1489 1488 1488 1487 1486 1485 1484 1483 1482 1480 1479 1477 1476 1475 1473 1472 1471 1471 1470 1470 1470 1470 1470 1470 1470 1470 1470 1470 1470 1470 1471 1471
1490 1490 1489 1489 1489 1489 1488 1488 1487 1487 1486 1486 1485 1485 1484 1483 1482 1481 1480 1479 1478 1476 1475 1473 1472 1470 1469 1468 1467 1466 1466 1466 1465 1465 1466 1466 1466 1465 1465 1465 1466 1466 1466 1467
1488 1488 1487 1486 1486 1485 1485 1484 1483 1483 1482 1482 1481 1480 1480 1479 1478 1477 1475 1474 1473 1471 1470 1469 1467 1466 1464 1463 1462 1461 1461 1461 1461 1461 1461 1461 1461 1461 1461 1461 1461 1462 1462 1463
1485 1485 1484 1483 1483 1482 1481 1481 1480 1479 1478 1478 1477 1476 1475 1475 1474 1472 1471 1469 1468 1467 1465 1464 1463 1461 1460 1459 1457 1457 1457 1456 1456 1457 1457 1457 1457 1457 1457 1457 1457 1457 1458 1459
1482 1481 1480 1480 1479 1479 1478 1477 1476 1476 1475 1474 1473 1472 1471 1470 1468 1467 1466 1464 1463 1462 1461 1459 1458 1457 1455 1454 1453 1453 1453 1453 1452 1453 1453 1453 1453 1453 1453 1454 1454 1454 1454 1455
1479 1479 1478 1477 1476 1475 1474 1474 1473 1472 1471 1470 1469 1467 1466 1465 1463 1462 1461 1460 1458 1457 1456 1455 1453 1452 1451 1450 1449 1450 1449 1449 1449 1449 1449 1449 1449 1449 1450 1451 1451 1451 1451 1452
1476 1476 1475 1474 1473 1472 1471 1470 1469 1468 1467 1465 1464 1463 1461 1460 1459 1458 1457 1455 1454 1453 1452 1451 1449 1448 1447 1446 1446 1446 1446 1446 1446 1446 1446 1446 1446 1446 1447 1447 1447 1448 1448 1449
1474 1473 1472 1471 1470 1469 1468 1467 1465 1464 1463 1462 1460 1459 1457 1456 1455 1454 1452 1451 1450 1449 1448 1447 1446 1445 1444 1444 1443 1443 1443 1443 1443 1443 1443 1443 1444 1443 1444 1444 1445 1446 1446 1446
1472 1471 1470 1469 1468 1467 1465 1464 1463 1461 1460 1459 1457 1456 1454 1453 1452 1450 1449 1448 1447 1446 1445 1444 1443 1442 1442 1441 1441 1441 1440 1440 1440 1440 1441 1441 1440 1441 1441 1442 1442 1443 1443 1444
1470 1469 1468 1467 1467 1465 1464 1462 1461 1460 1458 1457 1455 1454 1452 1451 1449 1447 1446 1446 1444 1443 1442 1442 1441 1440 1439 1438 1439 1439 1438 1438 1438 1438 1438 1438 1438 1438 1439 1439 1439 1440 1441 1441
1469 1468 1467 1466 1466 1464 1463 1462 1460 1459 1457 1456 1454 1452 1451 1449 1448 1446 1445 1444 1443 1441 1440 1440 1438 1437 1436 1436 1436 1436 1436 1436 1436 1436 1435 1435 1436 1436 1436 1437 1437 1438 1438 1438
1469 1468 1467 1466 1465 1463 1462 1461 1460 1458 1457 1455 1453 1452 1450 1448 1446 1445 1444 1442 1440 1439 1438 1437 1436 1435 1434 1434 1433 1433 1433 1433 1433 1434 1433 1433 1433 1434 1434 1435 1435 1435 1435 1436
1468 1467 1467 1466 1464 1463 1462 1461 1459 1458 1456 1455 1453 1451 1449 1447 1446 1444 1442 1441 1439 1438 1437 1435 1434 1433 1432 1432 1432 1431 1431 1431 1431 1431 1431 1431 1431 1432 1432 1432 1432 1433 1433 1433
1468 1468 1467 1466 1465 1463 1462 1460 1459 1457 1456 1454 1453 1451 1449 1447 1445 1443 1441 1440 1438 1437 1436 1435 1433 1432 1431 1431 1430 1430 1429 1429 1429 1429 1429 1429 1429 1429 1430 1430 1430 1430 1430 1430
1468 1467 1466 1465 1464 1463 1461 1460 1458 1457 1456 1454 1453 1451 1449 1447 1445 1443 1441 1440 1438 1437 1435 1434 1433 1432 1431 1430 1429 1428 1428 1428 1428 1428 1427 1427 1427 1427 1427 1428 1428 1428 1427 1427